Lapse_Rate
7.1 7.2 7.1 6.5 6.5 7.0 6.8 7.2 7.1 7.1 7.2 7.3 7.3 7.5 7.8 7.7 7.7 7.7 7.6 7.3 7.1 7.0 6.8 6.8 6.9 6.8 6.5 6.0 6.0 5.7 5.7 5.5 5.2 5.1 5.3 5.0 4.8 4.8 5.1 4.4 6.0 6.0 5.9
7.3 7.2 6.8 6.2 6.5 6.9 7.0 7.1 7.1 7.1 7.0 7.2 7.3 7.5 7.8 7.9 7.7 7.8 7.7 7.5 7.5 7.1 6.8 6.8 6.8 6.7 6.3 6.1 5.7 5.2 5.4 5.4 5.2 5.2 4.9 4.9 4.8 4.8 4.9 4.7 5.6 5.8 5.8
7.3 7.1 6.3 5.7 5.8 6.8 6.7 7.0 7.0 6.9 6.9 7.1 7.1 7.5 7.8 8.0 7.9 8.1 7.8 7.7 7.5 7.2 6.9 6.9 6.7 6.6 6.2 5.9 5.5 5.2 5.3 5.5 5.1 5.2 5.3 5.1 4.8 4.8 4.7 4.6 4.4 5.7 5.8
6.7 6.7 6.0 5.7 5.4 6.4 6.5 6.8 6.9 7.0 6.8 7.0 7.0 7.5 7.8 8.2 8.2 8.2 8.0 7.7 7.6 7.4 7.0 6.9 6.7 6.6 6.4 5.7 5.5 5.3 5.2 5.5 5.3 5.0 5.1 5.3 5.0 4.6 4.4 4.4 4.5 5.6 5.7
6.2 6.2 5.8 5.7 5.5 5.7 6.2 6.5 6.5 6.7 6.8 6.8 7.1 7.4 7.6 8.2 8.1 8.2 7.9 7.9 7.7 7.5 7.1 7.1 6.8 6.4 6.2 5.8 5.5 5.1 5.4 5.4 5.4 5.2 5.2 5.0 4.8 4.3 4.0 4.2 4.8 5.5 5.8
6.1 6.0 5.8 5.5 5.6 5.1 6.0 6.3 6.4 6.5 6.7 6.8 7.0 7.3 7.6 8.1 8.0 8.1 8.1 7.9 7.7 7.6 7.2 7.1 6.7 6.2 5.9 5.5 5.4 5.3 5.2 5.4 5.4 5.3 4.9 4.8 4.7 4.5 4.0 4.0 4.6 5.2 5.2
6.2 6.0 5.7 5.5 5.2 5.4 5.9 6.2 6.3 6.6 6.6 7.0 7.0 7.4 7.6 7.9 7.9 8.1 8.0 7.8 7.7 7.6 7.4 7.1 6.7 6.1 5.5 5.1 5.2 5.5 5.5 5.6 5.4 5.2 4.8 4.9 4.8 4.6 4.6 4.2 4.6 4.8 4.8
6.3 6.2 5.6 5.0 5.3 5.0 5.9 6.1 6.3 6.2 6.5 7.0 7.0 7.2 7.5 7.8 7.8 8.0 8.0 7.9 7.6 7.6 7.5 7.1 6.5 6.0 5.5 5.3 5.5 5.5 5.6 5.4 5.4 5.2 5.0 5.1 4.7 4.8 4.6 4.1 4.5 4.7 4.9
6.6 5.9 5.1 5.0 5.7 5.6 5.8 6.1 6.4 6.5 6.4 6.9 6.9 7.1 7.3 7.7 7.8 7.7 7.8 7.6 7.8 7.7 7.5 7.0 6.6 6.1 6.0 5.6 5.7 5.6 5.5 5.7 5.8 5.2 4.9 4.9 4.8 4.8 4.8 4.0 4.3 4.0 4.0
6.3 5.5 5.0 5.3 5.7 5.5 5.6 6.2 6.4 6.5 6.6 6.7 6.9 7.1 7.3 7.4 7.3 7.6 7.6 7.6 7.8 7.7 7.6 7.0 6.5 6.3 6.3 6.2 5.7 5.6 5.6 5.5 5.7 5.4 5.3 5.1 4.9 4.5 4.6 4.3 4.2 4.4 4.0
6.0 5.4 4.6 5.3 5.2 5.3 5.7 6.4 7.0 6.3 6.6 6.7 6.7 6.9 7.2 7.2 7.3 7.5 7.6 7.7 7.7 7.7 7.4 6.9 6.4 6.4 6.5 6.4 5.8 5.8 5.5 5.5 5.5 5.3 5.0 5.1 4.9 4.9 4.6 4.5 4.7 4.4 4.1
5.8 5.3 5.4 5.1 5.0 5.1 5.7 6.2 6.7 6.4 6.4 6.5 6.5 6.8 6.9 7.1 7.2 7.4 7.5 7.8 7.8 7.6 7.3 6.7 6.4 6.5 6.4 6.5 5.8 5.7 5.4 5.5 5.3 5.3 5.0 5.1 5.2 4.9 4.6 4.7 4.6 4.4 4.4
5.8 5.5 5.2 5.3 5.2 5.3 5.3 5.8 6.2 6.0 5.9 6.1 6.4 6.5 6.7 6.9 7.2 7.5 7.5 8.0 7.8 7.5 7.1 6.5 6.8 6.6 6.4 6.2 6.2 5.7 5.7 5.4 5.4 5.3 5.3 5.1 5.2 5.1 4.8 4.6 4.6 4.3 4.7
5.6 5.6 5.4 5.3 5.2 5.1 5.1 5.6 5.4 5.3 5.8 6.1 6.3 6.5 6.6 6.6 7.3 7.3 7.5 7.8 7.7 7.4 6.8 6.7 6.7 6.7 6.5 6.3 6.1 6.0 5.8 5.7 5.2 5.2 5.2 5.2 5.3 5.1 4.9 4.8 4.5 4.7 4.9
5.6 5.5 5.5 5.6 5.3 5.0 5.0 5.5 5.4 5.2 5.3 5.4 6.4 6.9 6.9 7.0 7.2 7.3 7.6 7.7 7.5 7.2 6.7 6.9 6.7 6.9 6.6 6.3 6.2 5.6 5.4 5.5 5.5 5.4 5.3 5.2 5.1 5.0 4.9 4.8 4.8 4.9 4.9
5.6 5.4 5.5 5.7 5.2 5.0 5.1 5.4 5.4 5.5 5.7 6.2 6.9 7.4 7.2 7.4 7.4 7.4 7.6 7.7 7.4 7.1 6.7 6.8 6.6 6.6 6.4 6.3 6.2 6.0 5.7 5.6 5.5 5.2 5.3 5.3 5.5 5.4 5.1 5.0 4.9 4.7 4.7
5.7 5.9 5.8 5.7 5.5 5.2 5.5 5.4 5.4 5.7 5.9 6.2 6.6 7.1 7.4 7.4 7.2 7.4 7.4 7.6 7.3 7.0 6.7 6.8 6.7 6.5 6.3 6.2 6.2 6.0 5.8 5.6 5.6 5.5 5.3 4.9 5.3 5.2 5.2 4.8 4.7 4.4 4.5
6.2 6.2 6.2 6.5 6.2 5.5 5.5 5.6 5.4 6.0 6.2 6.6 6.6 6.9 7.3 7.0 6.9 7.1 7.7 7.3 7.1 6.9 6.8 6.8 6.7 6.6 6.6 6.5 6.4 6.3 6.3 6.2 6.0 5.8 5.8 5.5 5.0 5.1 5.2 5.1 5.1 5.1 4.9
6.1 6.3 6.4 6.4 6.0 5.4 5.5 5.3 5.3 5.7 6.0 6.7 6.7 6.7 6.8 6.6 6.4 7.0 7.2 7.0 6.8 6.6 6.7 6.8 6.8 6.8 7.0 6.9 6.9 6.8 6.7 6.4 6.1 5.9 6.1 6.2 5.9 5.2 5.2 5.2 5.2 5.1 5.1
5.8 5.7 5.7 5.7 5.6 5.6 5.4 4.7 5.0 5.6 5.9 6.4 6.7 6.5 6.4 5.8 6.7 7.0 7.1 6.9 6.8 6.7 7.1 7.1 6.9 7.1 7.2 7.0 7.0 7.0 7.0 6.8 6.7 6.5 6.7 6.4 6.0 5.7 5.1 4.8 4.9 4.9 5.0
5.2 5.4 5.7 5.5 5.5 5.5 5.5 4.9 4.5 5.2 5.2 5.5 5.9 5.8 5.7 5.8 6.0 6.1 6.2 6.2 6.2 6.3 6.9 7.1 7.1 7.3 7.1 7.0 6.8 6.8 6.7 6.5 6.3 6.1 5.6 5.4 5.3 5.5 5.5 5.1 5.0 5.0 5.1
5.6 5.6 5.5 5.3 5.4 5.2 5.2 5.1 4.6 4.6 4.6 5.0 5.5 5.6 5.7 5.7 5.7 5.9 5.8 5.7 5.9 6.1 5.8 5.9 6.3 6.5 6.7 6.6 6.0 5.7 5.8 5.9 5.8 5.8 5.6 5.3 5.5 5.3 5.3 5.2 5.3 4.9 5.1
5.9 5.7 5.7 5.4 5.2 5.0 5.0 5.0 5.0 4.8 4.7 5.2 5.1 4.9 5.1 5.1 5.2 5.5 5.5 5.5 5.6 6.0 6.3 6.4 6.7 6.2 6.3 6.3 6.0 6.0 5.7 5.7 5.6 5.6 5.7 5.7 5.7 5.5 5.6 5.6 5.3 5.2 5.3
6.0 5.8 5.8 5.7 5.7 5.5 4.9 4.8 4.7 4.8 4.4 4.7 4.9 5.1 5.6 5.7 5.7 5.3 5.7 5.7 5.9 6.1 6.0 6.2 6.1 6.0 6.0 5.9 5.9 5.9 5.9 6.0 6.0 5.9 6.0 6.1 6.0 5.8 5.8 5.9 5.9 5.8 5.7
5.8 5.9 5.9 5.9 5.9 5.9 5.8 5.3 5.3 5.0 5.3 5.8 5.8 6.1 6.4 6.5 6.2 5.9 6.2 6.5 6.6 6.5 6.4 6.4 6.0 5.8 5.9 6.0 5.9 5.8 5.7 6.0 6.1 6.0 5.9 5.9 6.0 6.1 6.0 5.5 5.4 5.5 5.2
6.2 6.1 5.6 5.7 5.8 5.8 5.8 5.9 5.6 5.5 5.5 5.4 5.6 6.0 6.3 6.4 6.6 6.4 6.5 6.4 6.2 5.9 5.9 5.7 5.7 5.8 5.6 5.7 5.5 5.6 5.7 5.8 5.9 5.8 5.6 5.6 5.6 5.4 5.1 4.9 4.7 4.8 4.6
Wind_Speed
14 15 12 2 6 10 10 11 11 12 11 12 12 11 10 8 10 12 14 13 13 14 9 8 8 8 9 9 9 6 10 7 10 9 7 7 8 8 7 9 13 12 14
17 16 8 7 8 10 10 12 12 13 13 12 12 8 8 8 9 11 11 12 11 11 11 11 7 9 7 9 10 8 5 2 7 7 6 5 4 6 7 7 11 11 13
16 13 8 7 8 10 8 10 13 13 13 15 8 7 8 7 8 10 11 13 11 13 10 12 9 9 9 8 11 11 13 8 7 5 3 5 3 7 5 9 10 14 9
7 7 8 9 6 6 5 9 11 12 13 16 13 16 11 11 11 10 11 11 14 13 12 11 11 10 8 10 10 11 11 9 13 5 2 3 7 7 5 8 9 11 10
10 8 6 5 5 5 6 7 10 11 13 15 16 13 13 13 11 12 15 13 12 11 12 13 11 10 8 11 13 11 11 9 11 11 8 2 4 10 7 9 10 11 11
7 5 3 4 6 4 7 9 9 12 12 14 16 15 16 17 13 13 11 10 8 10 11 12 10 11 11 12 11 13 12 11 10 9 9 7 8 10 7 8 9 9 10
3 2 3 6 9 9 9 9 12 12 13 14 16 13 16 18 16 13 11 12 10 9 11 11 11 9 11 11 11 12 14 13 11 9 9 4 5 7 6 9 9 9 6
4 3 6 9 11 12 13 14 15 16 14 14 12 15 15 11 10 12 11 10 9 10 10 11 10 11 11 11 11 10 10 13 11 11 10 7 5 6 8 8 9 9 9
2 7 8 11 13 14 17 17 16 19 16 14 12 14 13 13 11 13 12 9 10 10 13 12 14 13 13 13 12 9 11 13 14 12 12 10 6 3 8 7 9 6 6
6 8 8 12 13 15 17 18 18 23 20 14 13 12 11 13 11 10 14 12 10 10 11 11 11 10 11 11 12 10 11 13 11 9 13 10 7 5 4 3 1 8 7
6 6 8 10 13 14 17 17 18 23 16 12 13 13 12 13 11 11 12 11 11 11 12 14 12 12 11 11 10 10 11 12 12 11 14 13 7 7 3 5 10 2 5
14 12 13 14 14 16 18 16 17 17 4 10 11 12 12 12 12 11 13 13 11 12 11 9 11 11 12 12 13 10 10 11 9 11 14 13 8 6 4 1 5 11 6
12 13 14 15 15 16 17 17 15 17 6 8 10 12 13 13 10 12 13 11 10 11 10 5 8 11 10 10 11 12 12 12 13 11 12 13 13 11 5 4 3 3 2
11 11 13 14 15 16 17 16 15 16 7 9 10 10 10 8 11 12 13 11 11 12 11 8 9 10 9 10 10 9 9 10 9 9 11 12 13 14 11 7 4 1 2
12 13 14 15 16 17 17 16 14 13 7 9 9 9 8 8 10 12 11 10 10 11 11 9 8 9 10 8 11 10 10 9 9 9 9 9 11 12 12 7 8 8 6
12 13 14 16 17 18 17 16 15 14 15 9 9 9 8 10 12 10 9 10 10 12 10 11 8 7 7 11 11 10 9 10 10 8 9 10 11 13 15 16 12 11 9
13 14 15 15 16 17 15 15 15 18 12 9 9 9 10 10 9 9 9 10 10 10 11 11 10 10 8 13 12 12 9 9 10 10 9 9 8 10 10 7 10 11 12
13 13 13 14 16 16 15 13 16 18 7 6 5 7 11 10 8 8 9 8 9 9 9 8 8 8 7 12 12 12 8 8 11 10 11 11 9 11 9 8 8 8 9
12 11 12 13 15 16 15 13 16 15 13 12 11 9 8 5 9 9 8 7 7 7 7 5 7 7 8 9 7 10 8 5 7 8 8 9 10 11 16 12 12 11 11
11 12 13 13 13 15 14 12 14 14 12 12 11 12 11 11 9 7 6 4 3 8 8 11 11 15 8 15 9 8 5 5 4 5 6 12 4 8 19 13 14 12 9
12 11 10 10 12 12 12 12 13 15 12 9 12 14 12 11 9 8 7 7 9 11 11 12 10 12 14 12 11 2 3 3 5 5 5 5 14 19 20 15 9 10 13
13 12 9 10 11 12 11 10 13 9 7 6 15 12 15 9 8 12 10 10 9 13 10 10 10 9 12 19 19 19 15 13 10 9 8 10 24 25 25 19 25 23 14
11 11 10 11 12 10 10 11 11 9 9 18 18 15 12 12 11 14 11 10 11 9 8 8 8 8 8 11 27 27 26 24 16 12 21 28 29 29 22 25 22 15 9
11 10 11 11 12 13 13 13 12 13 13 17 18 15 16 16 14 12 12 10 8 8 7 8 8 7 7 7 7 8 11 22 17 14 14 16 19 18 14 12 12 8 7
10 10 10 11 12 13 13 14 14 12 15 15 13 13 11 16 16 17 12 11 13 10 8 8 7 7 8 7 11 11 9 9 12 12 10 9 10 10 9 9 8 7 8
11 11 12 12 12 12 13 14 14 13 12 12 10 10 10 11 12 12 14 29 25 26 25 22 14 12 19 22 23 21 18 16 12 10 10 10 9 9 10 9 9 9 9
Wind_Direction
232 228 228 161 224 256 262 251 240 227 204 212 216 206 202 208 214 214 197 193 203 201 210 218 211 164 177 175 169 171 180 188 177 161 166 183 191 181 172 168 152 162 171
238 229 216 214 232 251 260 256 242 236 220 216 218 196 192 206 212 214 197 207 185 193 204 209 171 163 166 168 174 171 145 155 176 168 134 142 191 175 173 228 161 173 178
243 227 180 222 239 245 259 265 255 244 224 224 186 190 192 205 206 203 206 203 196 203 203 200 178 169 169 174 174 167 167 166 179 183 129 142 163 151 186 226 192 157 183
215 197 192 217 235 261 295 291 276 251 230 216 194 204 204 203 209 209 205 201 199 202 203 193 179 176 173 174 177 178 177 172 180 182 268 341 133 165 164 211 206 159 192
180 185 198 238 270 297 306 301 288 262 241 216 220 196 212 214 208 203 202 205 199 197 195 192 177 177 176 181 178 177 177 195 186 184 174 160 184 182 156 181 201 182 190
170 201 229 269 275 334 327 307 281 264 243 220 218 191 205 223 210 203 196 198 191 194 196 193 182 186 185 181 186 187 182 181 191 185 182 178 185 190 158 171 196 192 182
178 245 289 317 324 302 306 307 295 266 244 221 228 197 204 225 222 196 192 193 189 188 186 180 183 188 190 184 182 184 188 184 179 170 166 145 199 170 171 188 179 180 193
163 271 348 346 327 324 320 314 303 287 245 224 219 218 208 229 224 189 194 195 199 197 175 175 177 182 184 185 182 185 181 183 174 165 170 162 212 185 209 170 166 185 196
358 3 354 2 339 330 319 309 299 283 267 220 218 215 216 228 203 194 193 187 189 193 182 184 185 187 183 186 182 182 179 181 186 190 183 184 199 195 232 192 171 175 180
356 345 358 358 339 329 320 309 297 281 257 213 207 210 205 209 213 182 191 185 179 181 163 172 179 172 177 181 183 185 184 187 194 192 189 184 190 199 232 281 315 170 185
308 337 6 349 338 336 328 319 313 288 239 192 199 202 192 207 214 186 181 174 177 183 182 177 182 179 179 177 183 186 184 186 190 185 186 189 169 181 203 219 215 232 264
26 355 346 334 336 340 337 331 320 317 206 188 185 189 191 215 206 174 186 170 172 180 182 171 174 180 181 180 182 183 186 187 180 183 186 185 165 151 137 70 284 188 218
5 349 335 333 331 341 339 333 320 330 213 195 178 193 198 218 181 170 180 172 160 171 175 176 168 175 172 175 188 195 193 196 196 183 176 182 177 184 184 163 204 230 152
1 340 338 334 330 339 340 334 321 332 216 183 190 190 192 191 170 172 175 170 168 169 166 163 172 174 169 172 177 183 188 194 194 190 182 176 179 186 188 194 198 198 93
350 340 341 338 336 339 341 330 318 326 244 186 179 169 170 170 183 177 169 166 167 170 170 158 172 166 171 179 180 184 184 182 189 191 191 190 180 181 176 184 198 193 191
345 342 347 341 340 337 339 323 327 327 313 162 162 160 181 188 178 171 166 157 165 173 164 161 172 176 180 156 166 176 183 188 190 183 193 202 187 186 186 190 194 192 196
345 355 352 345 342 339 336 328 337 325 295 158 161 166 180 181 163 159 165 171 169 167 181 171 177 184 182 153 174 184 186 189 198 201 197 200 197 197 196 137 117 67 53
358 360 354 346 348 340 341 333 6 344 6 71 104 180 177 166 162 156 167 175 177 168 172 168 183 192 194 165 173 183 207 194 199 200 206 197 186 190 162 132 94 75 51
10 2 356 354 344 350 343 355 18 354 1 42 38 30 53 101 150 169 169 168 164 163 166 164 188 186 81 28 182 176 206 192 194 201 206 217 201 182 149 136 122 108 96
18 5 3 2 355 352 343 10 19 360 2 16 35 33 32 50 63 49 45 32 122 96 77 70 52 36 54 22 20 211 195 198 111 58 39 21 5 182 166 150 148 134 133
17 9 9 3 3 352 351 13 23 13 349 345 47 43 35 40 48 63 45 66 84 87 77 74 57 52 34 24 15 9 241 124 93 77 57 47 77 91 86 100 107 110 110
19 13 17 13 9 2 355 4 38 1 340 329 51 38 45 23 41 60 57 62 78 84 77 77 64 50 46 44 50 66 79 89 91 79 73 74 82 82 86 91 106 107 103
16 15 20 16 14 9 15 7 14 16 25 40 40 42 50 45 42 56 58 60 60 68 72 74 73 59 49 55 61 68 77 81 86 88 90 86 84 84 83 88 86 86 92
23 16 20 21 15 11 10 15 13 46 47 45 38 38 46 49 39 50 47 52 54 66 74 77 76 74 65 61 64 72 79 81 84 86 86 84 85 78 85 78 71 75 80
21 27 24 26 21 10 14 16 10 27 51 58 59 58 60 67 61 57 54 59 53 61 74 70 74 78 74 70 83 89 91 93 100 100 93 91 83 85 81 84 92 93 86
24 27 26 30 29 26 21 22 23 30 44 52 45 49 55 61 66 65 66 57 62 65 70 74 79 79 88 91 90 89 90 97 101 91 86 84 89 91 91 91 90 87 91